Waarnemingen

Advertentie
Mijn weer
Sa Pobla, Spanje (8312): temperatuur & dauwpunt: 21.04.2018 08:00:00 - 27.04.2018 08:00:00 (CEST)Sa Pobla, Spanje (8312): windsnelheid & windstoten: 21.04.2018 08:00:00 - 27.04.2018 08:00:00 (CEST)Sa Pobla, Spanje (8312): windrichting: 21.04.2018 08:00:00 - 27.04.2018 08:00:00 (CEST)Sa Pobla, Spanje (8312): luchtdruk: 21.04.2018 08:00:00 - 27.04.2018 08:00:00 (CEST)Sa Pobla, Spanje (8312): zicht: 21.04.2018 08:00:00 - 27.04.2018 08:00:00 (CEST)Sa Pobla, Spanje (8312): Zonneschijnduur: 21.04.2018 08:00:00 - 27.04.2018 08:00:00 (CEST)Sa Pobla, Spanje (8312): neerslag: 21.04.2018 08:00:00 - 27.04.2018 08:00:00 (CEST)
Datum & Tijd tt [°C] td [°C] ff [km/u] ff [kn] fx [km/u] fx [kn] dd ppp [hPa] vv [km] sd [min] rr [mm]
27.04.2018 08:00:00 9,6 7,1 6 3 10 6 Z 1014,2 20 14 -
27.04.2018 07:00:00 7,9 6,4 4 2 10 5 ZZW 1014,2 20 0 0,0
27.04.2018 06:00:00 8,2 5,8 5 3 11 6 ZW 1014,1 20 0 0,0
27.04.2018 05:00:00 9,1 6,8 6 3 9 5 ZW 1014,5 20 0 0,0
27.04.2018 04:00:00 9,2 6,4 4 2 10 5 ZZO 1014,8 20 0 0,0
27.04.2018 03:00:00 10,2 6,8 8 4 13 7 ZZW 1014,9 20 0 0,0
27.04.2018 02:00:00 10,6 6,7 8 4 10 6 ZZW 1015,7 20 0 -
27.04.2018 01:00:00 11,6 7,6 6 3 11 6 ZW 1016,0 20 0 0,0
27.04.2018 00:00:00 12,0 8,1 5 3 8 4 W 1016,4 20 0 0,0
26.04.2018 23:00:00 13,2 8,1 2 1 7 4 ZZO 1016,8 20 0 0,0
26.04.2018 22:00:00 14,6 8,5 3 1 10 5 Z 1016,9 20 0 0,0
26.04.2018 21:00:00 16,0 8,5 7 4 19 11 N 1016,7 20 0 0,0
26.04.2018 20:00:00 17,6 8,1 10 5 22 12 N 1016,3 20 27 -
26.04.2018 19:00:00 18,0 10,4 12 6 23 12 NO 1016,4 20 0 0,0
26.04.2018 18:00:00 18,3 10,4 18 10 32 17 NNO 1016,4 20 18 0,0
26.04.2018 17:00:00 17,5 10,4 23 12 36 19 NO 1016,6 20 0 0,0
26.04.2018 16:00:00 18,1 10,4 25 14 42 23 NNO 1016,9 20 18 0,0
26.04.2018 15:00:00 17,8 10,6 24 13 42 23 NNO 1017,4 20 0 0,0
26.04.2018 14:00:00 18,3 10,4 28 15 47 25 N 1017,5 20 0 -
26.04.2018 13:00:00 17,7 10,5 26 14 47 25 N 1017,7 20 0 0,0
26.04.2018 12:00:00 18,8 11,1 27 15 55 30 NNO 1018,1 20 19 0,0
26.04.2018 11:00:00 17,4 10,8 32 17 56 30 NNO 1018,3 20 0 0,0
26.04.2018 10:00:00 17,6 10,8 23 13 43 23 N 1018,4 20 0 0,0
26.04.2018 09:00:00 17,4 10,5 23 13 40 22 NNO 1018,6 20 2 0,0
26.04.2018 08:00:00 16,8 12,3 14 8 29 16 NNO 1018,4 19 0 -
26.04.2018 07:00:00 16,6 13,0 17 9 33 18 NO 1017,7 17 0 0,0
26.04.2018 06:00:00 17,0 14,2 21 11 32 17 NNO 1016,9 18 0 0,0
26.04.2018 05:00:00 17,2 14,8 14 8 27 15 NNO 1017,0 18 0 0,0
26.04.2018 04:00:00 17,6 14,7 13 7 24 13 NNO 1017,2 20 0 0,0
26.04.2018 03:00:00 17,5 13,7 11 6 18 10 N 1017,6 20 0 0,0
26.04.2018 02:00:00 17,5 14,6 9 5 20 11 N 1018,0 20 0 -
26.04.2018 01:00:00 17,4 14,3 10 5 15 8 N 1017,8 20 0 0,0
26.04.2018 00:00:00 17,5 13,7 5 3 10 5 NNO 1018,1 16 0 0,0
25.04.2018 23:00:00 18,0 13,9 2 1 9 5 OZO 1017,7 20 0 0,0
25.04.2018 22:00:00 18,4 13,7 10 5 22 12 NNO 1017,3 20 0 0,0
25.04.2018 21:00:00 18,6 14,9 9 5 16 9 NO 1016,6 20 0 0,0
25.04.2018 20:00:00 19,8 13,8 11 6 18 10 NNO 1016,4 20 0 -
25.04.2018 19:00:00 21,2 12,6 11 6 17 9 NNO 1016,4 20 14 0,0
25.04.2018 18:00:00 21,8 13,7 9 5 16 8 NO 1016,7 20 0 0,0
25.04.2018 17:00:00 23,7 11,7 6 4 19 10 O 1016,8 20 8 0,0
25.04.2018 16:00:00 24,2 13,2 7 4 17 9 NNO 1017,3 20 0 0,0
25.04.2018 15:00:00 24,6 12,5 9 5 20 11 NNO 1017,8 20 45 0,0
25.04.2018 14:00:00 23,4 12,6 13 7 22 12 NO 1018,3 20 13 -
25.04.2018 13:00:00 23,4 10,4 11 6 20 11 NO 1018,4 20 15 0,0
25.04.2018 12:00:00 23,3 11,0 10 5 18 10 NNO 1018,7 20 56 0,0
25.04.2018 11:00:00 20,9 11,8 9 5 19 10 NO 1018,6 20 11 0,0
25.04.2018 10:00:00 18,8 11,1 3 1 12 6 ONO 1018,3 20 0 0,0
25.04.2018 09:00:00 15,0 10,8 1 1 11 6 N 1017,7 20 0 0,0
25.04.2018 08:00:00 12,0 9,0 4 2 8 5 Z 1017,6 20 0 -
25.04.2018 07:00:00 11,4 8,3 2 1 11 6 NW 1017,0 20 0 0,0
25.04.2018 06:00:00 11,0 8,4 2 1 6 3 ZW 1017,3 20 0 0,0
25.04.2018 05:00:00 10,9 8,3 3 2 6 3 ZZW 1017,2 20 0 0,0
25.04.2018 04:00:00 11,5 8,7 3 1 6 4 WNW 1017,7 20 0 0,0
25.04.2018 03:00:00 11,6 8,4 3 2 8 4 ZZO 1017,9 20 0 0,0
25.04.2018 02:00:00 12,2 9,0 4 2 10 6 ZZW 1018,7 20 0 -
25.04.2018 01:00:00 13,0 9,7 3 1 8 4 ZW 1018,6 20 0 0,0
25.04.2018 00:00:00 13,8 10,8 2 1 6 3 NW 1018,3 19 0 0,0
24.04.2018 23:00:00 15,2 11,6 3 2 6 4 ZZW 1018,6 20 0 0,0
24.04.2018 22:00:00 16,8 12,1 3 2 5 3 W 1018,4 20 0 0,0
24.04.2018 21:00:00 18,3 12,5 4 2 11 6 NO 1018,1 20 0 0,0
24.04.2018 20:00:00 19,3 11,8 6 3 15 8 NO 1017,6 20 0 -
24.04.2018 19:00:00 20,5 10,9 10 5 18 10 NNO 1018,0 20 0 0,0
24.04.2018 18:00:00 21,3 9,2 13 7 23 13 NNO 1018,1 20 3 0,0
24.04.2018 17:00:00 22,1 7,4 14 8 26 14 NO 1018,5 20 20 0,0
24.04.2018 16:00:00 24,2 6,8 18 10 28 15 NO 1018,8 20 60 0,0
24.04.2018 15:00:00 25,8 7,4 17 9 28 15 NO 1019,4 11 54 0,0
24.04.2018 14:00:00 25,9 9,7 14 8 25 14 NO 1019,7 20 49 -
24.04.2018 13:00:00 25,6 8,5 10 6 19 10 NO 1020,5 20 60 0,0
24.04.2018 12:00:00 25,7 6,8 7 4 14 7 ONO 1020,7 20 60 0,0
24.04.2018 11:00:00 23,8 8,3 7 4 15 8 NNO 1020,4 20 60 0,0
24.04.2018 10:00:00 21,3 8,9 5 3 9 5 N 1020,1 20 60 0,0
24.04.2018 09:00:00 17,6 13,0 3 2 6 4 N 1020,1 20 60 0,0
24.04.2018 08:00:00 13,0 10,8 3 1 9 5 NW 1020,0 20 10 -
24.04.2018 07:00:00 11,1 9,7 4 2 8 4 NNW 1019,5 20 0 0,0
24.04.2018 06:00:00 11,4 9,8 2 1 4 2 ZZW 1019,0 14 0 0,0
24.04.2018 05:00:00 12,1 10,0 1 1 8 4 ZZW 1018,9 15 0 0,0
24.04.2018 04:00:00 13,1 10,8 3 2 6 3 NW 1018,9 18 0 0,0
24.04.2018 03:00:00 14,4 11,6 5 3 12 6 NW 1019,3 20 0 0,0
24.04.2018 02:00:00 15,3 13,5 7 4 11 6 NNW 1019,7 19 0 -
24.04.2018 01:00:00 15,8 14,1 6 3 12 7 N 1020,4 16 0 0,0
24.04.2018 00:00:00 15,0 11,8 5 3 8 4 NNW 1020,5 13 0 0,0
23.04.2018 23:00:00 15,7 11,9 4 2 6 4 NO 1020,6 7 0 0,0
23.04.2018 22:00:00 16,5 12,4 4 2 11 6 NNO 1020,4 18 0 0,0
23.04.2018 21:00:00 17,8 12,6 8 4 14 8 NNO 1019,8 20 0 0,0
23.04.2018 20:00:00 20,0 12,0 9 5 19 10 NO 1019,1 20 24 -
23.04.2018 19:00:00 22,9 13,4 7 4 16 8 NNO 1019,0 20 60 0,0
23.04.2018 18:00:00 23,9 13,2 11 6 19 10 NNO 1018,7 20 60 0,0
23.04.2018 17:00:00 24,6 11,9 11 6 21 11 NO 1018,8 20 60 0,0
23.04.2018 16:00:00 24,9 12,4 14 7 22 12 NNO 1019,3 20 60 0,0
23.04.2018 15:00:00 24,7 13,3 9 5 21 12 NO 1019,9 20 60 0,0
23.04.2018 14:00:00 24,9 12,8 12 7 20 11 NO 1020,2 20 60 -
23.04.2018 13:00:00 24,3 13,0 10 5 17 9 NO 1020,4 20 60 0,0
23.04.2018 12:00:00 24,2 9,8 8 4 16 8 O 1020,7 20 60 0,0
23.04.2018 11:00:00 22,9 10,0 5 3 13 7 N 1020,5 20 60 0,0
23.04.2018 10:00:00 20,6 12,0 3 1 6 4 O 1020,4 20 60 0,0
23.04.2018 09:00:00 15,9 11,1 3 2 9 5 ZO 1020,0 20 60 0,0
23.04.2018 08:00:00 11,4 8,9 5 3 9 5 ZZW 1019,6 20 3 -
23.04.2018 07:00:00 10,7 8,8 7 4 10 5 ZW 1019,1 20 0 0,0
23.04.2018 06:00:00 10,8 8,8 5 3 8 5 ZZW 1019,1 20 0 0,0
23.04.2018 05:00:00 10,8 7,8 3 2 8 4 ZO 1019,4 20 0 0,0
23.04.2018 04:00:00 12,1 8,5 5 3 8 4 ZW 1019,6 20 0 0,0
23.04.2018 03:00:00 12,3 8,9 3 2 7 4 ZW 1019,8 20 0 0,0
23.04.2018 02:00:00 13,3 9,2 4 2 7 4 WZW 1020,2 20 0 -
23.04.2018 01:00:00 14,6 9,2 6 4 11 6 WZW 1020,4 20 0 0,0
23.04.2018 00:00:00 14,7 9,6 4 2 8 4 ZW 1020,1 20 0 0,0
22.04.2018 23:00:00 16,3 9,7 2 1 10 6 Z 1020,2 20 0 0,0
22.04.2018 22:00:00 17,6 9,2 5 3 8 5 WZW 1019,6 20 0 0,0
22.04.2018 21:00:00 19,5 8,8 6 3 14 8 Z 1018,8 20 0 0,0
22.04.2018 20:00:00 21,7 8,9 8 5 19 10 ZZO 1018,5 20 45 -
22.04.2018 19:00:00 24,1 8,1 11 6 18 10 ZO 1018,4 20 60 0,0
22.04.2018 18:00:00 25,6 7,7 11 6 36 19 OZO 1018,3 20 60 0,0
22.04.2018 17:00:00 25,2 11,0 12 6 23 12 NO 1018,4 20 60 0,0
22.04.2018 16:00:00 25,1 11,3 13 7 22 12 NO 1018,7 20 60 0,0
22.04.2018 15:00:00 25,1 10,9 12 7 27 15 NO 1019,1 20 60 0,0
22.04.2018 14:00:00 26,1 10,3 10 5 23 12 O 1019,2 20 60 -
22.04.2018 13:00:00 25,4 10,0 8 4 17 9 OZO 1019,7 20 60 0,0
22.04.2018 12:00:00 23,9 9,8 4 2 13 7 ONO 1020,2 20 60 0,0
22.04.2018 11:00:00 21,7 9,9 6 4 11 6 OZO 1020,2 20 60 0,0
22.04.2018 10:00:00 18,0 10,9 1 1 6 3 ZZO 1019,8 20 60 0,0
22.04.2018 09:00:00 14,0 11,1 3 2 11 6 WZW 1019,7 20 54 0,0
22.04.2018 08:00:00 10,6 9,2 6 3 13 7 Z 1019,8 20 0 -
22.04.2018 07:00:00 10,0 8,8 6 4 11 6 ZZW 1019,1 15 0 0,0
22.04.2018 06:00:00 10,5 9,0 3 2 11 6 ZW 1019,1 15 0 0,0
22.04.2018 05:00:00 10,5 9,0 6 4 9 5 ZZW 1019,4 15 0 0,0
22.04.2018 04:00:00 11,0 9,0 5 3 10 5 ZZW 1019,8 14 0 0,0
22.04.2018 03:00:00 11,6 9,2 6 4 10 5 ZZW 1020,2 20 0 0,0
22.04.2018 02:00:00 12,2 9,0 3 1 9 5 ZZW 1020,6 18 0 -
22.04.2018 01:00:00 12,7 9,2 6 4 9 5 ZW 1021,0 20 0 0,0
22.04.2018 00:00:00 13,8 10,0 5 3 8 4 ZW 1021,1 20 0 0,0
21.04.2018 23:00:00 14,6 10,2 2 1 9 5 WZW 1021,2 20 0 0,0
21.04.2018 22:00:00 15,8 11,2 2 1 5 3 W 1021,1 20 0 0,0
21.04.2018 21:00:00 17,4 11,7 3 2 13 7 NNO 1020,7 20 0 0,0
21.04.2018 20:00:00 18,7 11,2 10 6 18 10 NO 1020,1 20 34 -
21.04.2018 19:00:00 20,7 8,0 11 6 23 12 ONO 1020,0 20 57 0,0
21.04.2018 18:00:00 23,5 9,2 15 8 22 12 NO 1019,9 20 60 0,0
21.04.2018 17:00:00 24,5 8,4 13 7 25 13 NO 1020,1 20 60 0,0
21.04.2018 16:00:00 24,9 8,4 13 7 24 13 ONO 1020,5 20 60 0,0
21.04.2018 15:00:00 24,5 8,4 14 8 26 14 NNO 1021,0 20 60 0,0
21.04.2018 14:00:00 24,1 9,3 10 6 22 12 NNO 1021,4 20 60 -
21.04.2018 13:00:00 23,2 9,2 9 5 19 10 NNO 1021,7 20 60 0,0
21.04.2018 12:00:00 22,1 11,2 8 4 16 9 NNO 1022,2 20 60 0,0
21.04.2018 11:00:00 20,6 11,0 9 5 14 8 NNO 1022,1 20 60 0,0
21.04.2018 10:00:00 18,4 11,7 5 3 11 6 NO 1022,1 20 60 0,0
21.04.2018 09:00:00 14,7 10,9 2 1 7 4 ZZO 1021,7 20 60 0,0
21.04.2018 08:00:00 10,5 9,0 4 2 10 6 ZW 1021,6 20 16 -

tt = temperatuur
td = dauwpunt
ff = windsnelheid
fx = windstoten
dd = windrichting
ppp = luchtdruk
vv = zicht
sd = Zonneschijnduur
rr = neerslag

Weerstations in de omgeving